Theta_e
339 350 353 355 353 353 353 354 354 355 353 352 353 351 350 348 346 344 343 342 341 341 342 342 344 346 345 345 345 345 345 345 346 345 345 345 345 346 347 347 347 347 350
344 351 350 354 354 354 353 353 353 352 353 353 351 351 350 346 345 344 342 342 341 339 338 337 339 341 343 343 344 343 343 343 345 344 341 342 344 343 343 343 346 345 349
347 350 351 352 354 354 353 353 353 353 352 351 349 348 348 345 345 343 341 340 339 339 337 334 333 337 338 341 343 343 342 342 343 341 339 333 335 341 341 340 341 343 347
348 350 350 348 353 354 353 353 353 353 351 350 349 348 347 345 343 341 340 338 337 337 335 332 331 333 336 339 340 342 343 343 342 340 334 334 333 339 340 339 339 340 340
346 349 349 348 352 352 352 352 352 350 350 349 349 347 346 344 342 341 339 336 335 335 332 330 330 332 335 337 338 340 340 339 340 337 333 333 333 336 339 338 336 337 338
343 347 346 348 351 352 350 351 350 350 350 350 348 348 346 344 342 340 337 336 334 333 331 327 328 329 332 334 336 337 334 334 336 333 332 335 334 338 336 336 335 335 336
341 346 347 347 348 349 349 349 349 349 348 347 348 347 346 343 341 339 337 335 334 332 330 326 325 325 327 329 331 331 328 331 328 326 325 327 331 335 334 333 333 333 333
339 343 345 339 343 345 347 347 347 347 346 346 346 346 345 343 341 338 337 335 334 332 330 324 321 321 321 322 323 323 325 324 323 319 319 322 334 333 331 329 330 331 332
328 336 341 342 340 337 341 342 343 345 344 345 345 345 343 341 341 339 337 335 334 332 330 324 318 317 316 317 318 321 320 319 312 311 316 318 330 330 329 328 328 328 330
313 315 319 333 337 339 340 335 337 340 340 341 341 338 335 335 336 334 333 335 334 332 330 325 320 317 316 315 319 318 315 312 304 304 308 314 323 324 327 327 327 328 329
309 308 310 312 329 333 339 337 334 336 336 335 335 331 329 333 333 331 329 333 334 332 329 328 325 318 315 318 318 316 309 299 300 300 305 318 319 322 323 324 327 326 328
302 305 308 309 311 320 333 338 340 338 337 337 336 333 334 332 331 330 327 329 330 329 329 328 326 322 315 306 304 307 300 299 299 300 304 314 315 318 320 322 323 327 326
304 307 310 310 310 310 322 332 339 339 337 336 336 335 336 333 329 328 325 324 321 320 320 320 318 314 311 308 306 304 303 300 299 300 306 313 313 315 317 319 321 323 325
305 307 309 310 311 311 314 330 334 333 332 331 331 332 332 330 330 327 327 323 320 318 316 316 315 314 312 311 310 308 306 303 301 300 302 311 313 315 315 317 318 320 323
305 305 307 310 313 314 315 330 328 326 327 327 327 327 329 330 329 328 326 323 321 319 316 316 312 312 311 312 312 310 308 305 303 302 301 307 313 313 316 318 318 318 318
304 304 308 315 316 317 325 323 321 320 320 321 321 322 323 326 325 324 321 319 317 317 315 313 310 309 308 310 310 308 307 308 307 305 304 304 312 311 313 315 315 316 316
302 304 308 313 314 317 317 317 316 316 317 316 316 317 318 318 317 316 315 313 313 314 313 312 309 309 306 306 305 305 305 306 307 302 300 300 301 307 311 312 313 314 315
301 304 306 310 310 312 312 312 312 312 312 312 312 313 313 313 313 311 310 309 310 310 308 305 306 302 300 299 299 299 301 304 300 299 299 299 299 299 303 309 307 309 313
301 304 304 306 305 306 307 308 308 308 307 307 306 308 309 308 308 306 305 305 305 302 302 302 299 298 295 295 297 298 300 300 298 299 298 298 297 298 296 302 300 301 307
300 303 304 303 303 303 304 303 301 299 299 299 297 299 301 302 302 301 299 298 298 296 296 298 297 295 293 293 298 299 297 297 298 296 296 294 292 293 291 292 291 291 301
300 302 303 302 302 303 302 300 298 295 294 294 294 294 295 296 296 296 294 292 291 290 289 293 296 291 289 291 295 296 295 295 296 294 292 289 289 291 289 290 289 288 291
299 303 304 304 304 304 302 298 295 293 291 290 290 290 291 291 291 291 290 289 288 288 288 287 287 288 287 287 289 291 289 293 291 290 288 287 285 287 287 289 287 288 289
297 303 304 304 303 298 296 294 292 291 289 288 288 288 289 290 289 289 288 288 287 287 286 285 284 285 283 284 285 287 283 281 285 289 285 284 284 284 284 286 286 287 288
297 301 301 300 297 296 296 293 292 289 286 285 286 286 287 288 287 287 287 286 286 285 284 284 284 283 283 281 283 285 282 282 281 279 281 282 283 283 283 284 284 286 288
297 297 297 297 297 295 295 292 289 287 286 286 285 285 285 285 286 286 285 285 284 284 283 282 282 282 282 281 280 281 281 280 280 277 276 278 280 282 282 283 283 284 286
294 294 294 294 293 293 290 289 288 286 285 285 284 284 283 284 283 283 283 283 283 283 282 281 281 281 281 280 280 281 280 279 277 277 276 276 276 279 282 282 281 283 284
Wind_Speed
2 7 11 12 12 12 12 12 12 12 13 13 15 16 17 16 17 17 16 17 16 16 17 16 16 15 15 15 15 14 13 13 14 18 18 18 18 18 19 18 14 12 14
10 10 11 11 11 11 11 11 10 10 11 12 13 15 17 16 17 17 16 17 17 17 16 16 15 15 15 14 13 12 11 10 8 7 12 15 15 17 18 18 16 15 18
12 11 10 11 11 11 10 9 9 9 9 11 12 13 17 16 16 16 16 16 16 16 16 16 15 14 15 14 13 12 13 14 12 9 11 6 9 18 18 18 17 17 17
13 11 10 12 13 12 11 9 8 8 8 9 12 15 17 15 15 15 15 14 14 15 15 15 15 15 14 13 12 13 15 16 13 8 8 7 8 16 18 17 17 18 15
11 11 10 12 14 14 12 9 8 8 8 10 12 15 16 15 15 15 15 14 14 15 15 15 14 14 13 13 13 15 16 17 11 11 7 5 6 13 17 16 15 15 15
7 12 12 12 13 14 12 10 7 10 9 9 13 14 16 16 16 15 15 15 15 14 14 14 14 14 14 13 14 16 16 14 9 9 10 11 7 16 16 15 15 15 14
7 8 10 10 12 12 12 10 8 9 9 10 11 13 15 15 16 15 15 15 15 15 15 15 15 15 14 14 15 16 17 13 10 10 10 8 9 15 15 14 14 14 14
7 7 7 9 9 9 10 10 9 9 9 10 12 13 15 14 15 15 16 16 15 15 15 15 15 15 15 15 15 15 16 16 11 9 8 7 12 13 14 13 13 13 14
9 8 5 6 8 9 8 8 9 9 10 11 12 12 13 12 14 14 14 15 15 15 15 15 15 15 15 15 16 15 15 16 9 6 8 5 13 13 13 13 12 12 12
7 7 6 5 6 4 2 6 10 9 8 10 11 12 13 13 11 12 11 13 15 14 15 15 13 13 14 15 14 13 13 13 7 6 5 5 12 13 13 13 13 12 11
6 7 6 6 3 5 3 3 8 11 11 10 9 12 10 6 9 9 6 11 16 14 13 14 13 10 9 10 11 11 10 4 6 4 3 10 12 13 13 12 12 12 11
4 4 5 6 6 6 2 1 3 5 4 5 6 7 5 5 5 6 7 8 7 7 10 12 12 11 7 4 4 7 4 5 5 4 3 10 11 12 12 13 12 12 10
4 4 6 5 4 3 3 0 2 3 3 3 4 6 5 5 5 5 3 3 4 6 3 5 5 4 5 4 4 4 4 4 3 3 4 10 11 12 12 13 13 12 12
6 4 5 6 5 4 2 1 3 6 5 4 4 5 6 5 5 4 3 4 4 3 4 4 3 4 6 5 5 5 5 4 3 3 4 9 11 14 14 14 14 14 14
5 3 4 5 5 3 2 5 5 5 6 5 6 6 4 4 5 5 5 4 3 3 4 4 4 4 5 6 6 6 6 6 5 3 3 9 11 15 16 16 16 16 15
4 3 3 4 3 2 6 8 6 7 6 6 6 6 7 5 5 6 5 5 4 3 4 4 4 4 4 4 5 5 5 5 5 6 4 6 15 17 17 18 19 17 17
2 2 2 4 4 8 9 9 7 7 7 6 6 8 9 8 8 8 5 5 4 4 5 5 4 4 4 4 5 5 4 6 5 7 7 7 8 16 21 22 23 21 20
4 4 5 4 6 7 9 8 7 7 7 7 6 7 9 9 9 8 6 6 4 4 4 4 4 4 4 4 3 4 4 5 6 8 7 7 6 7 12 23 25 24 22
6 6 6 6 6 8 9 9 9 10 8 7 5 7 9 10 9 9 6 6 5 5 4 4 5 4 4 4 4 4 4 5 6 7 9 10 10 8 7 15 21 21 23
6 6 8 6 7 9 8 9 9 9 8 7 6 6 7 6 8 8 7 6 5 5 5 5 6 6 4 4 4 7 5 4 6 6 8 8 9 8 8 8 7 10 21
6 7 8 9 8 7 7 7 6 6 7 7 7 8 8 8 9 9 7 7 7 8 5 5 4 8 10 6 3 4 5 8 8 7 7 8 9 8 10 7 6 6 7
7 7 8 9 9 5 5 6 5 6 7 6 6 9 8 9 9 9 9 8 7 8 10 8 6 2 5 8 4 2 3 4 4 5 6 7 7 6 9 10 10 9 6
8 10 11 9 6 8 11 10 10 9 6 6 6 7 7 9 10 10 10 8 8 7 7 6 5 6 4 5 10 4 4 1 3 3 5 6 11 6 6 9 10 9 8
8 8 8 10 10 10 11 10 11 9 10 2 5 6 7 8 10 10 10 9 8 6 7 6 5 5 4 4 3 5 6 3 3 4 4 4 6 6 6 8 7 9 9
9 9 8 9 9 10 11 9 10 11 9 7 7 10 9 7 8 9 9 8 8 7 6 7 7 8 5 5 4 2 4 4 4 3 4 6 3 4 4 5 6 5 9
7 8 8 9 6 8 10 11 14 17 14 11 9 9 7 6 6 7 8 8 7 7 7 6 6 8 6 6 4 4 3 2 1 3 1 3 2 5 8 4 5 6 5
Wind_Direction
156 140 135 130 121 112 106 104 99 100 99 103 105 100 94 88 83 78 73 71 66 60 57 53 52 53 57 57 53 49 51 57 69 69 65 55 50 50 48 40 41 50 55
146 141 135 128 122 115 110 106 100 98 102 107 108 103 94 86 83 78 73 67 62 58 56 54 51 47 51 51 48 36 33 38 50 66 67 62 52 55 50 42 37 44 46
137 137 134 132 126 119 112 105 105 114 118 110 116 104 98 89 85 78 70 64 60 57 54 54 53 51 47 43 42 29 15 18 18 66 84 57 61 49 48 46 42 40 37
139 144 145 146 139 133 126 124 123 118 118 117 119 114 103 97 89 83 76 71 66 62 57 56 55 54 52 51 43 29 18 13 10 21 80 76 51 50 47 44 43 41 38
142 150 155 158 149 143 135 131 134 128 119 120 119 119 111 107 97 90 82 78 73 66 61 59 59 61 59 54 45 35 26 14 38 68 68 63 53 44 45 42 42 41 39
151 159 155 165 154 145 142 143 152 127 118 121 125 126 121 117 110 101 93 85 80 73 67 63 61 60 57 52 45 44 28 20 38 63 52 36 41 47 40 39 39 39 39
114 122 149 157 153 148 144 149 145 130 133 131 131 131 127 122 115 106 98 93 85 77 69 65 62 59 56 50 44 43 29 27 53 52 46 27 27 42 36 35 36 39 38
104 123 125 101 122 139 148 156 161 154 144 135 134 136 132 128 121 113 107 102 94 85 74 69 66 60 54 49 45 40 34 43 57 55 39 29 23 37 35 33 33 35 36
48 62 71 138 134 138 149 160 166 163 154 146 141 134 131 125 126 121 116 109 100 91 84 80 75 68 61 56 48 45 43 55 68 51 45 19 23 32 34 33 32 34 37
55 60 46 46 103 94 177 190 174 166 158 151 146 135 134 131 127 128 129 121 112 100 90 86 82 74 66 59 57 49 46 54 62 53 37 22 29 31 30 30 28 30 36
34 34 28 26 36 103 77 169 198 176 157 155 149 142 135 144 143 144 138 134 129 118 108 101 97 101 79 64 67 58 57 55 72 64 50 38 33 29 29 25 23 27 30
69 40 35 20 8 347 358 70 157 152 148 150 142 148 147 143 135 121 109 98 81 82 109 111 99 95 85 65 44 54 65 75 71 79 56 48 37 30 27 25 22 17 20
85 56 32 14 347 340 307 92 343 99 97 83 127 159 153 132 127 113 102 98 97 75 33 41 68 73 90 100 73 54 50 45 58 77 52 46 34 28 25 22 19 17 10
74 47 9 355 336 294 281 114 76 93 87 79 73 94 136 131 123 124 115 107 98 85 72 61 57 38 42 53 70 62 51 44 32 29 15 43 36 28 23 20 18 13 9
83 31 352 329 309 279 205 101 89 85 78 75 59 52 73 110 119 119 106 97 85 92 86 67 63 56 36 27 28 31 25 24 33 35 33 33 36 32 27 25 17 11 9
95 49 324 22 26 156 93 92 85 77 74 63 54 53 53 81 91 86 82 74 64 62 72 81 59 59 43 32 36 32 28 19 21 34 35 27 43 33 31 22 19 15 10
117 102 62 73 53 95 98 94 92 92 89 77 69 60 64 68 79 83 79 77 59 50 63 57 56 66 55 38 43 24 14 20 46 59 54 46 36 35 36 33 30 24 16
126 117 81 85 76 86 100 100 100 94 91 80 74 74 73 78 84 84 83 75 60 62 66 61 50 46 36 29 9 19 25 43 74 72 67 54 48 40 32 34 31 20 15
147 138 108 100 100 101 97 102 96 90 86 82 78 83 86 86 91 95 90 77 71 61 62 71 48 64 29 6 13 31 39 67 60 67 57 55 46 41 29 28 28 19 18
144 131 116 113 113 108 107 101 91 84 76 72 63 65 79 83 81 88 79 71 59 62 50 60 68 41 28 7 25 63 55 61 74 67 58 51 40 38 28 23 19 4 12
153 137 135 134 134 130 129 117 97 99 90 78 68 56 62 69 67 74 74 67 59 65 56 50 67 51 29 6 64 29 37 49 58 52 66 50 33 27 18 17 18 5 357
161 145 144 144 149 154 124 112 106 110 88 86 80 69 64 67 71 76 77 68 55 67 56 51 44 71 52 23 92 78 27 350 21 62 51 39 24 22 16 5 3 357 357
160 153 149 160 149 119 114 111 106 99 89 86 73 77 64 77 80 84 81 81 70 70 69 54 45 58 88 21 40 106 63 353 329 344 38 41 22 18 358 359 356 348 347
165 153 147 138 137 133 135 131 138 131 128 99 107 99 85 75 82 87 91 89 85 79 73 67 50 59 83 52 18 39 56 103 80 332 348 14 5 13 354 348 341 341 344
160 154 140 134 140 144 141 133 123 109 113 120 112 100 93 85 87 88 88 87 84 83 80 81 68 63 59 79 56 15 46 55 63 93 296 328 356 352 351 331 325 340 352
146 142 139 135 132 136 131 133 135 136 142 137 134 125 118 109 98 85 92 94 92 88 83 81 76 71 71 72 70 56 70 82 60 48 334 296 289 312 321 320 337 350 348